Date String (YYYY-MM-DD hh:mm:ss) UTC,Instrument flags,absolute air pressure of the measurement (hPa),sample flow rate (lpm),inlet stack bypass flow (lpm),air temperature of the measurement (°C),ambient temperature measured by the external sensor (°C),aerosol sample conditioner tube jacket temperature (°C),OPC LED temperature (°C),internal box temperature (°C),relative humidity of the measurement (%),span deviation,mass concentration of particles derived from Lorenz-Mie calculation of OPC scattering (μg/m³),mass concentration of particles derived from Lorenz-Mie calculation of OPC scattering (μg/m³),mass concentration of particles derived from Lorenz-Mie calculation of OPC scattering (μg/m³)
DateTimeUTC,F1_M11,P_M11,Q1_M11,Q2_M11,T1_M11,T2_M11,T3_M11,T4_M11,T5_M11,U1_M11,ZSPAN_M11,X0_M11,X2_M11,X1_M11
2024-01-24 18:00:00,SystemResetWarning,0827.3,5.01,000.00,022.3,021.6,000.0,030.6,023.7,18.2,0000.0,0012.87,0005.58,0004.71
2024-01-24 18:01:00,SystemResetWarning,0827.4,5.01,000.00,022.3,021.6,000.0,030.6,023.7,18.5,0000.0,0014.01,0005.57,0004.63
2024-01-24 18:02:00,SystemResetWarning,0827.3,5.00,000.00,022.3,021.6,000.0,030.6,023.8,18.5,0000.0,0013.99,0005.54,0004.61
2024-01-24 18:03:00,SystemResetWarning,0827.3,5.00,000.00,022.3,021.6,000.0,030.6,023.7,19.3,0000.0,0014.01,0005.48,0004.54
2024-01-24 18:04:00,SystemResetWarning,0827.3,5.00,000.00,022.3,021.7,000.0,030.6,023.7,18.6,0000.0,0014.26,0005.43,0004.50
2024-01-24 18:05:00,SystemResetWarning,0827.3,4.99,000.00,022.3,021.7,000.0,030.6,023.8,18.4,0000.6,0014.28,0005.43,0004.51
2024-01-24 18:06:00,SystemResetWarning,0827.3,4.99,000.00,022.3,021.7,000.0,030.6,023.8,18.0,0001.6,0014.33,0005.43,0004.48
2024-01-24 18:07:00,SystemResetWarning,0827.2,5.00,000.00,022.3,021.7,000.0,030.6,023.8,18.3,0001.7,0014.33,0005.42,0004.48
2024-01-24 18:08:00,SystemResetWarning,0827.2,5.00,000.00,022.3,021.7,000.0,030.6,023.8,17.9,0002.0,0014.31,0005.41,0004.47
2024-01-24 18:09:00,SystemResetWarning,0827.2,5.00,000.00,022.3,021.7,000.0,030.6,023.8,18.4,0001.9,0014.08,0005.38,0004.46
2024-01-24 18:10:00,SystemResetWarning,0827.1,5.01,000.00,022.3,021.7,000.0,030.6,023.8,18.9,0001.8,0012.74,0005.11,0004.38
2024-01-24 18:11:00,SystemResetWarning,0827.1,5.01,000.00,022.3,021.7,000.0,030.6,023.8,18.8,0002.5,0008.84,0004.66,0004.28
2024-01-24 18:12:00,SystemResetWarning,0827.2,5.00,000.00,022.3,021.7,000.0,030.6,023.8,18.3,0001.4,0007.44,0004.55,0004.25
2024-01-24 18:13:00,SystemResetWarning,0827.1,5.00,000.00,022.3,021.7,000.0,030.6,023.8,17.3,0001.4,0007.81,0004.44,0004.15
2024-01-24 18:14:00,SystemResetWarning,0827.2,5.00,000.00,022.4,021.7,000.0,030.6,023.8,17.2,0000.4,0007.95,0004.36,0004.08
2024-01-24 18:15:00,SystemResetWarning,0827.1,5.00,000.00,022.4,021.6,000.0,030.6,023.7,16.9,0000.0,0007.56,0004.32,0004.04
2024-01-24 18:16:00,SystemResetWarning,0827.1,4.99,000.00,022.4,021.6,000.0,030.6,023.7,16.2,0000.0,0007.45,0004.26,0003.98
2024-01-24 18:17:00,SystemResetWarning,0827.1,5.00,000.00,022.4,021.6,000.0,030.6,023.7,16.1,0000.0,0007.43,0004.25,0003.96
2024-01-24 18:18:00,SystemResetWarning,0827.1,5.01,000.00,022.4,021.6,000.0,030.6,023.7,15.8,0000.0,0008.22,0004.21,0003.92
2024-01-24 18:19:00,SystemResetWarning,0827.1,5.01,000.00,022.4,021.6,000.0,030.7,023.7,15.9,0000.0,0008.25,0004.19,0003.89
2024-01-24 18:20:00,SystemResetWarning,0827.2,5.01,000.00,022.4,021.6,000.0,030.7,023.7,16.1,0000.0,0008.28,0004.15,0003.85
2024-01-24 18:21:00,SystemResetWarning,0827.2,5.00,000.00,022.4,021.6,000.0,030.7,023.7,15.9,0000.0,0008.24,0004.11,0003.81
2024-01-24 18:22:00,SystemResetWarning,0827.1,4.99,000.00,022.3,021.6,000.0,030.7,023.7,16.0,0000.0,0008.20,0004.09,0003.82
2024-01-24 18:23:00,SystemResetWarning,0827.2,4.99,000.00,022.3,021.6,000.0,030.7,023.7,16.3,0000.0,0008.18,0004.07,0003.81
2024-01-24 18:24:00,SystemResetWarning,0827.1,5.00,000.00,022.3,021.6,000.0,030.7,023.7,16.2,0000.0,0008.09,0004.09,0003.85
2024-01-24 18:25:00,SystemResetWarning,0827.1,5.00,000.00,022.3,021.6,000.0,030.7,023.7,16.4,0000.0,0007.51,0004.16,0003.92
2024-01-24 18:26:00,SystemResetWarning,0827.1,5.00,000.00,022.3,021.7,000.0,030.7,023.7,16.6,0000.0,0007.57,0004.23,0003.99
2024-01-24 18:27:00,SystemResetWarning,0827.2,5.01,000.00,022.3,021.6,000.0,030.7,023.7,16.1,0000.0,0007.66,0004.30,0004.06
2024-01-24 18:28:00,SystemResetWarning,0827.1,5.00,000.00,022.3,021.7,000.0,030.7,023.7,16.0,0000.0,0007.68,0004.35,0004.11
2024-01-24 18:29:00,SystemResetWarning,0827.2,5.00,000.00,022.3,021.6,000.0,030.7,023.6,15.8,0000.0,0007.02,0004.36,0004.14
2024-01-24 18:30:00,SystemResetWarning,0827.1,5.00,000.00,022.3,021.6,000.0,030.7,023.6,15.9,0000.0,0006.46,0004.39,0004.17
2024-01-24 18:31:00,SystemResetWarning,0827.1,5.00,000.00,022.3,021.6,000.0,030.7,023.6,16.4,0000.0,0006.76,0004.37,0004.17
2024-01-24 18:32:00,SystemResetWarning,0827.1,5.00,000.00,022.3,021.6,000.0,030.7,023.6,16.3,0000.0,0006.65,0004.38,0004.18
2024-01-24 18:33:00,SystemResetWarning,0827.1,5.00,000.00,022.3,021.6,000.0,030.7,023.6,16.4,0000.0,0006.92,0004.47,0004.23
2024-01-24 18:34:00,SystemResetWarning,0827.0,5.00,000.00,022.3,021.6,000.0,030.7,023.6,16.4,0000.0,0007.09,0004.54,0004.29
2024-01-24 18:35:00,SystemResetWarning,0827.0,4.99,000.00,022.3,021.6,000.0,030.7,023.6,16.6,0000.0,0007.20,0004.57,0004.31
2024-01-24 18:36:00,SystemResetWarning,0827.0,4.99,000.00,022.3,021.6,000.0,030.6,023.6,16.5,0000.0,0007.30,0004.58,0004.31
2024-01-24 18:37:00,SystemResetWarning,0827.0,5.00,000.00,022.3,021.6,000.0,030.7,023.6,16.1,0000.0,0007.21,0004.54,0004.27
2024-01-24 18:38:00,SystemResetWarning,0826.9,5.00,000.00,022.3,021.6,000.0,030.6,023.5,16.0,0000.0,0007.30,0004.54,0004.25
2024-01-24 18:39:00,SystemResetWarning,0826.9,5.01,000.00,022.3,021.6,000.0,030.6,023.5,15.9,0000.0,0007.27,0004.51,0004.23
2024-01-24 18:40:00,SystemResetWarning,0826.9,5.01,000.00,022.3,021.6,000.0,030.6,023.5,15.9,0000.0,0007.33,0004.51,0004.21
2024-01-24 18:41:00,SystemResetWarning,0826.9,5.00,000.00,022.2,021.6,000.0,030.6,023.5,16.0,0000.0,0007.33,0004.49,0004.20
2024-01-24 18:42:00,SystemResetWarning,0826.9,5.00,000.00,022.2,021.6,000.0,030.6,023.5,16.2,0000.0,0007.13,0004.50,0004.19
2024-01-24 18:43:00,SystemResetWarning,0826.9,5.01,000.00,022.2,021.6,000.0,030.6,023.4,16.3,0000.0,0007.84,0004.53,0004.18
2024-01-24 18:44:00,SystemResetWarning,0826.8,5.00,000.00,022.2,021.6,000.0,030.6,023.5,16.5,0000.0,0007.73,0004.46,0004.16
2024-01-24 18:45:00,SystemResetWarning,0826.8,5.00,000.00,022.2,021.6,000.0,030.6,023.5,16.5,0000.0,0007.62,0004.39,0004.12
2024-01-24 18:46:00,SystemResetWarning,0826.8,5.00,000.00,022.2,021.6,000.0,030.6,023.5,16.1,0000.0,0007.51,0004.33,0004.07
2024-01-24 18:47:00,SystemResetWarning,0826.8,5.00,000.00,022.2,021.6,000.0,030.6,023.4,16.0,0000.0,0007.40,0004.30,0004.06
2024-01-24 18:48:00,SystemResetWarning,0826.8,5.00,000.00,022.2,021.5,000.0,030.6,023.4,16.1,0000.0,0007.42,0004.30,0004.06
2024-01-24 18:49:00,SystemResetWarning,0826.7,5.00,000.00,022.2,021.5,000.0,030.6,023.4,16.1,0000.0,0007.27,0004.25,0004.04
2024-01-24 18:50:00,SystemResetWarning,0826.8,5.00,000.00,022.2,021.5,000.0,030.6,023.4,16.1,0000.0,0007.28,0004.25,0004.02
2024-01-24 18:51:00,SystemResetWarning,0826.8,4.99,000.00,022.2,021.5,000.0,030.6,023.4,16.2,0000.0,0007.14,0004.21,0003.99
2024-01-24 18:52:00,SystemResetWarning,0826.8,5.01,000.00,022.2,021.5,000.0,030.6,023.4,16.0,0000.0,0007.10,0004.20,0003.99
2024-01-24 18:53:00,SystemResetWarning,0826.8,5.01,000.00,022.2,021.4,000.0,030.6,023.4,15.8,0000.0,0007.03,0004.18,0003.98
2024-01-24 18:54:00,SystemResetWarning,0826.7,5.00,000.00,022.2,021.4,000.0,030.6,023.4,15.6,0000.0,0005.63,0004.13,0003.98
2024-01-24 18:55:00,SystemResetWarning,0826.8,5.00,000.00,022.2,021.4,000.0,030.6,023.4,15.9,0000.0,0005.66,0004.12,0003.96
2024-01-24 18:56:00,SystemResetWarning,0826.7,4.99,000.00,022.2,021.4,000.0,030.5,023.4,15.7,0000.0,0006.32,0004.11,0003.94
2024-01-24 18:57:00,SystemResetWarning,0826.6,5.00,000.00,022.2,021.4,000.0,030.5,023.4,15.8,0000.0,0007.25,0004.12,0003.94
2024-01-24 18:58:00,SystemResetWarning,0826.6,5.00,000.00,022.1,021.4,000.0,030.5,023.4,16.0,0000.0,0007.29,0004.13,0003.95
2024-01-24 18:59:00,SystemResetWarning,0826.6,5.00,000.00,022.1,021.4,000.0,030.5,023.3,16.1,0000.0,0007.36,0004.16,0003.96
